COSMOS 2251 DEB, 34758

Orbit data source: Space-Track

COSMOS 2251 DEB, 34758 is space debris in LEO originally from a launch on Wed, 16 Jun 1993 UTC launched from the Plesetsk Missile And Space Complex (PKMTR). The debris from Iridium 33, an American commercial communications satellite, has been tracked extensively since its accidental collision with the defunct Russian satellite Cosmos 2251 in 2009. This event, occurring at high speed in low Earth orbit (LEO), generated thousands of pieces of space debris, significantly increasing the risk of further collisions. The Iridium 33 debris cloud has impacted space traffic management and orbital debris mitigation strategies, making it a subject of ongoing study in space situational awareness.

Loading next visibility...
Identifier
34758, 1993-036AAC
Orbit
LEO
Country
Flag of CISCIS
Related business
Manufacturer
Unknown
Mission
Spacecraft
Bus & Motor
Unknown
Mass
Unknown
Launch date (UTC)
1993-06-16 (33 years ago)
Launch vehicle
Unknown
Launch site
Plesetsk Missile And Space Complex (PKMTR)
Object type
Payload
Rocket body
Debris
Shape & HBR
Unknown shape, 0.1 m
Radar Cross Section
Medium (>0.1 m² and <1 m²)

Expand to show TLE details & history
Last TLE update: 20 hours ago

TLE from 20 hours ago
0 COSMOS 2251 DEB
1 34758U 93036AAC 26208.95606028  .00000568  00000-0  49438-3 0  9992
2 34758  74.1058 293.5553 0387038   4.8697 355.6007 13.58598476859957
Epoch: 2026-07-27T22:56Z
TLE epoch observation values (Epoch: 2026-07-27T22:56:43.608Z)
Latitude
0.00003°
Longitude
3.74141°
Altitude
757.044 km
Speed
7.619 km/s
True Right ascension
19h 34m 13s
True Declination
0° 00' 00"
Sunlit
Object was in full shadow at epoch
Visualization orbit readout
Latitude
Unknown
Longitude
Unknown
Altitude
Unknown
Speed
Unknown
Apparent Right ascension
Unknown
Apparent Declination
Unknown
Sunlit
N/A
Visualization observer readout
Local Sidereal Time
08:45:37
Azimuth
Unknown
Elevation
Unknown
Doppler factor
Unknown
Orbital elements
Apogee altitude
1,325.541 km
Perigee altitude
751.438 km
Semi-major axis
7,416.626 km
Eccentricity
0.0387
Inclination
74.1058°
RAAN
293.5553°
Arg. of periapsis
4.8697°
True anomaly
355.24329°
Mean anomaly
355.6007°
Eccentric anomaly
355.42377°
Mean motion
3.39808 °/min
Orbital period
105.94 mins
BSTAR
0.00049438
Loading maneuver chart data...
Computing Atmospheric mass density...

Documentation

Showing up to 5 results
|